{"data":{"norad_id":66122,"intl_designator":"2025-237J","name":"STARLINK-35653","alt_names":[],"object_type":"PAYLOAD","status":"ACTIVE","operator":null,"country":"US","launch_date":"2025-10-22","launch_site_code":"AFWTR","launch_vehicle":null,"mission":null,"orbit_class":"UNKNOWN","rcs_meters":null,"size_class":null,"mass_kg":null,"dimensions":null,"purposes":["comms"],"wikipedia_slug":null,"has_3d_model":false,"image_url":null,"decayed_at":null,"tle_current":{"epoch":"2026-09-19T11:16:25.828896Z","epoch_age_seconds":189461,"freshness":"STALE","line1":"1 66122U 25237J   26262.46974339  .00020992  00000+0  63080-3 0  9990","line2":"2 66122  53.1579 218.5048 0001711 102.3090 257.8104 15.34393112 52299","mean_motion":15.34393112,"eccentricity":0.0001711,"inclination_deg":53.1579,"raan_deg":218.5048,"arg_perigee_deg":102.309,"mean_anomaly_deg":257.8104,"bstar":0.0006308,"rev_number":5229,"period_min":93.848179370607,"perigee_km":461.5532416033,"apogee_km":463.89418413924,"semimajor_km":6840.8607128713,"source":"CELESTRAK","updated_at":"2026-09-21T09:00:35.807800Z"}}}